OpenBCM V1.08-5-g2f4a (Linux)

Packet Radio Mailbox

IZ3LSV

[San Dona' di P. JN]

 Login: GUEST





  
I0OJJ  > KEPS     27.10.25 03:01l 314 Lines 14999 Bytes #129 (0) @ AMSAT
BID : ORB25300.1
Read: GUEST
Subj: 2Line Orbital Elements 25300.AMSAT
Path: IZ3LSV<IK6IHL<IK7NXU<HB9ON<DK0WUE<PD0LPM<PI8ZTM<IR0AAB<I0OJJ
Sent: 251027/0121z @:I0OJJ.ITA.EU [Rome] obcm1.08-11-2-gbfe9
From: I0OJJ @ I0OJJ.ITA.EU (Gustavo)
To:   KEPS @ AMSAT
X-Info: This message was generated automatically


QST de W1STR

AMSAT Orbital Elements for Amateur Satellites in TLE Format
From Orbital Analysis Office
New England Sci-Tech STEM Education Center
Natick MA October 27, 2025
To all radio amateurs


These element sets describe the orbits of various satellites 
in use by the amateur radio community. For details see:
www.amsat.org/keplerian-elements-formats/

A daily update of element sets is available at:
www.amsat.org/tle/daily-bulletin.txt
or without bulletin text:
www.amsat.org/tle/dailytle.txt


AO-07
1 07530U 74089B   25299.75919296 -.00000035  00000-0  70534-4 0  9990
2 07530 101.9984 305.5281 0012019 215.8726 318.7162 12.53692792331266
UO-11
1 14781U 84021B   25299.85237397  .00002775  00000-0  29406-3 0  9992
2 14781  97.7742 263.6355 0006315 228.3044 131.7634 14.89903523222372
AO-27
1 22825U 93061C   25299.79750708  .00000183  00000-0  86717-4 0  9993
2 22825  98.7208   1.9389 0009384  68.5059 291.7123 14.30850946673621
FO-29
1 24278U 96046B   25299.60278964  .00000020  00000-0  57942-4 0  9990
2 24278  98.5510 175.0538 0349707 342.4900  16.4426 13.53258259441571
NOAA-15
1 25338U 98030A   25299.78256725  .00000235  00000-0  11415-3 0  9995
2 25338  98.5271 321.5173 0009406 316.2522  43.7912 14.27042382428000
GO-32
1 25397U 98043D   25299.85266834  .00000146  00000-0  83144-4 0  9994
2 25397  98.9879 281.9915 0001791 133.3595 226.7732 14.24357173418111
ISS
1 25544U 98067A   25299.71634698  .00015600  00000-0  28569-3 0  9996
2 25544  51.6344  15.2829 0004606 341.7148  18.3675 15.49497961535565
NO-44
1 26931U 01043C   25299.79612112  .00000242  00000-0  12149-3 0  9993
2 26931  67.0485 127.8735 0007136 272.5920  87.4365 14.31813649257030
SO-50
1 27607U 02058C   25299.84751050  .00001754  00000-0  22933-3 0  9993
2 27607  64.5505 130.4983 0069180 305.2750  54.1896 14.82132133229861
CO-55
1 27844U 03031E   25299.79876281  .00000516  00000-0  24332-3 0  9996
2 27844  98.6784 306.3039 0010311 138.4725 221.7239 14.24120072158451
CO-57
1 27848U 03031J   25299.53173720  .00000422  00000-0  20480-3 0  9996
2 27848  98.6813 305.9395 0009910 155.8451 204.3194 14.23436715158135
RS-22
1 27939U 03042A   25299.92176252  .00001880  00000-0  30239-3 0  9997
2 27939  98.3380 112.8839 0010339 290.8098 231.7500 14.72767172181201
CO-58
1 28895U 05043F   25299.39468601  .00002793  00000-0  45677-3 0  9991
2 28895  98.2695  85.6916 0013638 223.9856 136.0266 14.71605622 67353
CO-65
1 32785U 08021C   25299.88212691  .00008736  00000-0  59969-3 0  9995
2 32785  97.8032 272.3498 0011363  98.8361 261.4153 15.06179035950036
CO-66
1 32791U 08021J   25299.69892248  .00020371  00000-0  86699-3 0  9992
2 32791  97.7424 283.3148 0006032  66.2530 293.9338 15.23017438951634
RS-30
1 32953U 08025A   25299.87202784  .00000002  00000-0 -57184-4 0  9994
2 32953  82.5005 140.5762 0019916 100.3144 260.0183 12.43169730790707
NOAA-19
1 33591U 09005A   25299.80315705  .00000084  00000-0  68796-4 0  9993
2 33591  98.9824   5.1899 0013229 334.2294  25.8217 14.13421278861518
SRMSAT
1 37841U 11058D   25299.67288957  .00000516  00000-0  13624-3 0  9998
2 37841  19.9730  32.8033 0011719 154.1364 357.3004 14.11487063724781
ZACUBE-1
1 39417U 13066B   25299.85584786  .00007239  00000-0  60217-3 0  9998
2 39417  97.7987 256.3781 0041420 308.8811  50.8719 14.98331559645750
Delfi-N3xt
1 39428U 13066N   25299.77362538  .00010199  00000-0  98240-3 0  9996
2 39428  97.8298 216.0000 0078838 261.5535  97.6741 14.90790634639792
GOMX-1
1 39430U 13066Q   25299.81648260  .00002545  00000-0  39372-3 0  9990
2 39430  97.6646 149.8762 0132395 106.2940 255.2874 14.68282427635653
LO-74
1 39440U 13066AA  25299.84763506  .00006341  00000-0  62023-3 0  9992
2 39440  97.8632 243.6263 0062434  80.3397 280.4867 14.91210114642182
AO-73
1 39444U 13066AE  25299.86072235  .00011459  00000-0  80223-3 0  9998
2 39444  97.7990 262.6207 0037885 276.7173  82.9741 15.04832379644519
DTUSAT-2
1 40030U 14033W   25299.39194791  .00009296  00000-0  56641-3 0  9999
2 40030  98.0721 278.2452 0007175 324.4537  35.6212 15.10601035617335
EO-80
1 40032U 14033Y   25299.66966676  .00009397  00000-0  57139-3 0  9995
2 40032  98.0608 277.9983 0005834 244.1885 115.8741 15.10680310617353
LILACSAT-2
1 40908U 15049K   25299.87167375  .00017920  00000-0  41037-3 0  9998
2 40908  97.4973 323.8638 0009199  31.6047 328.5750 15.42800845559673
IO-86
1 40931U 15052B   25151.18580175  .00001241  00000-0  78118-4 0  9996
2 40931   6.0006  24.0987 0012733 338.8432  21.1169 14.78805930523159
Horyu-4
1 41340U 16012D   25299.61167194  .00044278  00000-0  89072-3 0  9998
2 41340  30.9958 272.2408 0003328 103.7109 256.3910 15.45350907534243
Lapan A3
1 41603U 16040E   25299.84087487  .00005069  00000-0  17129-3 0  9991
2 41603  97.1431 299.1213 0012371 125.4806 234.7592 15.31009949519084
CAS-2T
1 41847U 16066G   25299.78393500  .00002348  00000-0  33767-3 0  9991
2 41847  98.4079  12.9834 0345486 117.1382 246.5483 14.43953895471109
TechnoSat
1 42829U 17042E   25299.73049958  .00005876  00000-0  44084-3 0  9990
2 42829  97.4046 101.9867 0018819 168.2518 191.9151 15.02864738451615
AO-91
1 43017U 17073E   25299.60306498  .00010672  00000-0  51490-3 0  9994
2 43017  97.4997 166.9083 0166506  52.3606 309.2598 15.07382399430135
S-Net D
1 43186U 18014G   25299.69400957  .00007318  00000-0  41187-3 0  9996
2 43186  97.5472 201.1922 0010674 102.3706 257.8721 15.13492818423409
S-Net B
1 43187U 18014H   25299.70132598  .00006849  00000-0  38594-3 0  9998
2 43187  97.5479 201.1779 0011443  98.5555 261.6974 15.13469641423401
S-Net A
1 43188U 18014J   25299.69390362  .00007552  00000-0  42481-3 0  9994
2 43188  97.5487 201.3398 0011242  99.2034 261.0469 15.13498672423406
S-Net C
1 43189U 18014K   25299.43966049  .00006286  00000-0  35449-3 0  9997
2 43189  97.5505 201.1255 0012880  94.0366 266.2338 15.13458589421917
Ten-Koh
1 43677U 18084G   25299.73205856  .00003586  00000-0  28316-3 0  9996
2 43677  98.0693 117.4941 0009342 159.7137 200.4459 15.01355976381112
PO-101
1 43678U 18084H   25299.80031865  .00003921  00000-0  32781-3 0  9996
2 43678  98.1101 121.3725 0007780 165.5094 194.6352 14.99103572381231
QO-100
1 43700U 18090A   25299.83608506  .00000156  00000-0  00000+0 0  9996
2 43700   0.0193 125.4852 0001966 128.6521 108.1250  1.00274203 25332
MinXSS-2
1 43758U 18099A   25299.75503891  .00026301  00000-0  86755-3 0  9995
2 43758  97.4855   6.5821 0010573  30.9782 329.2080 15.31359565378223
AO-95
1 43770U 18099N   25299.62544345  .00013297  00000-0  61338-3 0  9994
2 43770  97.4742 356.2958 0011456  89.5784 270.6763 15.20307042377655
SNUSat 2
1 43782U 18099AA  25299.71435889  .00009837  00000-0  49930-3 0  9998
2 43782  97.4416 351.9501 0012153  38.1320 322.0771 15.17050313377577
SnugLite
1 43784U 18099AC  25299.68996345  .00013744  00000-0  62812-3 0  9991
2 43784  97.4234 351.8198 0004125  51.6174 308.5431 15.20671533377754
ITASat 1
1 43786U 18099AE  25299.68837341  .00009514  00000-0  51088-3 0  9996
2 43786  97.4390 350.9978 0015263  86.4550 273.8428 15.15032582377506
EAGLET 1
1 43790U 18099AJ  25299.67928123  .00006039  00000-0  37026-3 0  9994
2 43790  97.4593 350.4312 0013246  74.5761 285.6931 15.10437115377050
ESEO
1 43792U 18099AL  25299.69027666  .00002075  00000-0  15744-3 0  9999
2 43792  97.4291 341.7859 0013551  53.1629 307.0838 15.03203093376716
JO-97
1 43803U 18099AX  25299.72767690  .00017251  00000-0  69769-3 0  9992
2 43803  97.4487 357.7529 0007203  29.1755 330.9884 15.24762246377942
Suomi 100
1 43804U 18099AY  25299.72742672  .00013914  00000-0  61739-3 0  9997
2 43804  97.4548 356.5959 0011933  29.4137 330.7768 15.21627735377834
ISAT
1 43879U 18111D   25299.74293831  .00037109  00000-0  10125-2 0  9998
2 43879  97.5880 217.7376 0010826  72.1498 288.0926 15.37289072375016
UWE-4
1 43880U 18111E   25299.69627737  .00026242  00000-0  86598-3 0  9994
2 43880  97.5821 215.0397 0013618  81.4143 278.8640 15.31310772374878
Sparrow
1 43881U 18111F   25299.72431780  .00040637  00000-0  10450-2 0  9997
2 43881  97.6056 221.2082 0009467  96.5868 263.6454 15.39111169375129
Prox-1
1 44339U 19036A   25299.11065637  .00016564  00000-0  19368-2 0  9999
2 44339  23.9958 229.7841 0007230 216.1835 143.8174 14.83417496338584
Taurus 1
1 44530U 19059C   25299.82747431  .00010328  00000-0  18070-2 0  9995
2 44530  98.6222  86.1443 0008700 321.4544  38.6037 14.68028924324359
Duchifat 3
1 44854U 19089C   25299.82123541  .00175064  00000-0  14005-2 0  9990
2 44854  36.9322 179.3619 0009891 300.6601  59.3187 15.69546604324694
TO-108
1 44881U 19093C   25299.83531605  .00001509  00000-0  17880-3 0  9997
2 44881  97.7806  12.5086 0014773 130.7199 229.5303 14.85940024316751
FloripaSat 1
1 44885U 19093G   25299.83969932  .00008163  00000-0  65434-3 0  9990
2 44885  97.8075  27.8357 0011422 115.5412 244.6994 15.00334619317616
RS-44
1 44909U 19096E   25299.79330675  .00000015  00000-0  20253-4 0  9990
2 44909  82.5184 134.8092 0217036 330.3237  28.5691 12.79744929272492
SALSAT
1 46495U 20068K   25299.50806266  .00011264  00000-0  45134-3 0  9998
2 46495  97.8762 284.2826 0012389  47.7562 312.4724 15.25148235279686
CSS (TIANHE-1)
1 48274U 21035A   25299.71160602  .00033701  00000-0  39545-3 0  9999
2 48274  41.4668 302.3888 0010993 287.9770  71.9871 15.60714252256683
TUBIN
1 48900U 21059X   25299.86102759  .00137570  00000-0  72230-3 0  9993
2 48900  97.6722 122.0847 0001730  64.1286 296.0159 15.80364239241862
CUTE
1 49263U 21088D   25299.71895771  .00025753  00000-0  39029-3 0  9993
2 49263  97.4387  20.5989 0006781  87.0045 273.1985 15.54600678225986
